Regional Weather Roundup
Issued by NWS State College, PA

Home | Current Version | Previous Version | Graphics & Text | Print | Product List | Glossary On
Versions: 1 2 3 4 5 6 7 8 9 10 11 12 13 14 15 16 17 18 19 20 21 22 23 24 25 26 27 28 29 30 31 32 33 34 35 36 37 38 39 40 41 42 43 44 45 46 47 48 49 50
000
ASUS41 KCTP 260003
RWRCTP

REGIONAL WEATHER ROUNDUP
NATIONAL WEATHER SERVICE STATE COLLEGE PA
700 PM EST THU DEC 25 2014

Note: "fair" indicates few or no clouds below 12,000 feet with no
significant weather and/or obstructions to visibility.

* = STATION THAT DOES NOT REPORT PRECIPITATION /E.G. RAIN...SNOW...ETC/
    THUNDER OR FOG.

PAZ002>004-007>009-013>016-020>023-029>032-260100-
WESTERN PENNSYLVANIA

CITY           SKY/WX    TMP DP  RH WIND       PRES   REMARKS
ERIE           CLOUDY    38  31  76 W14       30.12R
MEADVILLE      CLOUDY    36  27  69 SW8       30.11R
FRANKLIN*      CLOUDY    36  27  69 W7        30.13R
NEW CASTLE       N/A     37  30  76 SW5       30.16R
BEAVER COUNTY  NOT AVBL
BUTLER*        CLOUDY    37  27  65 SW9       30.17R
PITTSBURGH INT CLOUDY    38  28  67 SW10      30.16R
PITTSBURGH     CLOUDY    38  26  62 W10       30.16R
INDIANA*       CLOUDY    37  30  75 W13G20    30.17R
LATROBE        CLOUDY    37  30  75 W10       30.18R
WASHINGTON CO* NOT AVBL
$$

PAZ004>006-010>012-017>019-024>028-033>037-041-042-045-046-049>053-260100-
CENTRAL PENNSYLVANIA

CITY           SKY/WX    TMP DP  RH WIND       PRES   REMARKS
BRADFORD       CLOUDY    34  27  75 VRB7      30.05R
DUBOIS         CLOUDY    35  28  75 W13G21    30.09R
CLEARFIELD     CLOUDY    37  27  67 W8G18     30.10R
JOHNSTOWN      CLOUDY    34  27  75 W14G21    30.10R
ALTOONA        CLOUDY    38  29  70 W14       30.13R
STATE COLLEGE  NOT AVBL
WILLIAMSPORT   CLOUDY    43  29  57 W9        30.08R
SELINSGROVE    CLOUDY    43  30  60 VRB5      30.11R
FT INDIANTOWN  NOT AVBL
CAPITAL CITY   CLOUDY    45  29  53 NW16G24   30.13R
HARRISBURG     CLOUDY    44  30  57 NW22G28   30.12R
YORK           FAIR      42  30  62 NW10      30.12R
$$

PAZ038>040-043-044-047-048-054-055-060>062-067>071-260100-
EASTERN PENNSYLVANIA

CITY           SKY/WX    TMP DP  RH WIND       PRES   REMARKS
SCRANTON       CLOUDY    43  28  55 W21G26    30.05R
MOUNT POCONO   CLOUDY    38  29  70 NW16G25   29.98R
ALLENTOWN      CLOUDY    46  30  53 W8G20     30.05R
QUAKERTOWN*    NOT AVBL
READING        CLOUDY    45  30  55 NW16G24   30.07R
LANCASTER      MOCLDY    44  30  57 NW16      30.09R
COATESVILLE    CLEAR     43  32  65 NW12      30.09R
POTTSTOWN      PTCLDY    43  29  57 W8G18     30.07R
BLUE BELL      PTCLDY    46  32  57 W7G18     30.07R
DOYLESTOWN     PTCLDY    43  50 100 W7        30.05R
WILLOW GROVE   NOT AVBL
NORTH PHILA    CLEAR     48  28  46 W14G23    30.09R
PHILADELPHIA   PTCLDY    48  29  47 W12       30.10R
$$


USA.gov is the U.S. government's official web portal to all federal, state and local government web resources and services.